Data charts dashboard

Select data range

 
Start datetime:
 
 
End datetime:
 
 
Load data
 
Get the data!
Showing results from 2019/06/18 19:43 to 2019/06/19 01:43 (UTC)

Timestamp (UTC) Station Temperature Humidity Pressure Soundlevel Lightlevel
6/19/2019 1:40:23 AM stm32lrwan1_1 @ 868.3 Mhz 22.5 69 1009.9 485 2
6/19/2019 1:35:23 AM stm32lrwan1_1 @ 868.1 Mhz 22.5 69 1009.9 485 2
6/19/2019 1:30:23 AM stm32lrwan1_1 @ 868.5 Mhz 22.5 69 1010 484 2
6/19/2019 1:25:23 AM stm32lrwan1_1 @ 868.5 Mhz 22.5 69 1009.9 484 2
6/19/2019 1:20:23 AM stm32lrwan1_1 @ 868.5 Mhz 22.5 69 1010.1 485 2
6/19/2019 1:15:23 AM stm32lrwan1_1 @ 868.5 Mhz 22.5 69 1010 484 1
6/19/2019 1:10:23 AM stm32lrwan1_1 @ 868.5 Mhz 22.5 69 1010.1 484 2
6/19/2019 1:05:23 AM stm32lrwan1_1 @ 868.1 Mhz 22.5 69 1010 484 2
6/19/2019 1:00:23 AM stm32lrwan1_1 @ 868.3 Mhz 22.5 69 1010.2 483 2
6/19/2019 12:55:23 AM stm32lrwan1_1 @ 868.5 Mhz 22.6 69 1010.3 483 2
6/19/2019 12:50:23 AM stm32lrwan1_1 @ 868.1 Mhz 22.5 69 1010.4 484 2
6/19/2019 12:45:23 AM stm32lrwan1_1 @ 868.1 Mhz 22.6 69 1010.5 485 2
6/19/2019 12:40:23 AM stm32lrwan1_1 @ 868.1 Mhz 22.6 69 1010.6 485 2
6/19/2019 12:35:23 AM stm32lrwan1_1 @ 868.5 Mhz 22.6 69 1010.5 483 2
6/19/2019 12:30:23 AM stm32lrwan1_1 @ 868.5 Mhz 22.6 69 1010.6 484 2
6/19/2019 12:25:23 AM stm32lrwan1_1 @ 868.5 Mhz 22.6 69 1010.7 485 2
6/19/2019 12:20:23 AM stm32lrwan1_1 @ 868.3 Mhz 22.6 69 1010.7 485 2
6/19/2019 12:15:23 AM stm32lrwan1_1 @ 868.1 Mhz 22.6 69 1010.8 484 2
6/19/2019 12:10:23 AM stm32lrwan1_1 @ 868.1 Mhz 22.6 69 1010.7 485 3
6/19/2019 12:05:23 AM stm32lrwan1_1 @ 868.5 Mhz 22.6 69 1011 482 2
6/19/2019 12:00:23 AM stm32lrwan1_1 @ 868.5 Mhz 22.6 69 1010.9 483 2
6/18/2019 11:55:23 PM stm32lrwan1_1 @ 868.3 Mhz 22.6 69 1010.9 483 2
6/18/2019 11:50:23 PM stm32lrwan1_1 @ 868.5 Mhz 22.7 68 1010.9 483 2
6/18/2019 11:45:23 PM stm32lrwan1_1 @ 868.3 Mhz 22.7 68 1010.9 483 2
6/18/2019 11:40:23 PM stm32lrwan1_1 @ 868.1 Mhz 22.6 68 1011 483 2
6/18/2019 11:35:23 PM stm32lrwan1_1 @ 868.1 Mhz 22.7 68 1011.1 485 2
6/18/2019 11:30:23 PM stm32lrwan1_1 @ 868.5 Mhz 22.7 68 1011.1 485 2
6/18/2019 11:25:23 PM stm32lrwan1_1 @ 868.5 Mhz 22.7 68 1011.3 485 2
6/18/2019 11:20:23 PM stm32lrwan1_1 @ 868.5 Mhz 22.7 68 1011.3 483 2
6/18/2019 11:15:23 PM stm32lrwan1_1 @ 868.5 Mhz 22.7 68 1011.3 483 2
6/18/2019 11:10:23 PM stm32lrwan1_1 @ 868.1 Mhz 22.7 68 1011.4 484 2
6/18/2019 11:05:23 PM stm32lrwan1_1 @ 868.5 Mhz 22.7 67 1011.3 484 2
6/18/2019 11:00:23 PM stm32lrwan1_1 @ 868.1 Mhz 22.7 67 1011.6 482 2
6/18/2019 10:55:23 PM stm32lrwan1_1 @ 868.5 Mhz 22.7 67 1011.5 484 3
6/18/2019 10:50:23 PM stm32lrwan1_1 @ 868.1 Mhz 22.7 67 1011.6 484 2
6/18/2019 10:45:23 PM stm32lrwan1_1 @ 868.3 Mhz 22.8 67 1011.8 483 2
6/18/2019 10:40:23 PM stm32lrwan1_1 @ 868.3 Mhz 22.7 67 1011.7 484 3
6/18/2019 10:35:23 PM stm32lrwan1_1 @ 868.3 Mhz 22.7 67 1011.8 484 2
6/18/2019 10:30:23 PM stm32lrwan1_1 @ 868.3 Mhz 22.8 67 1011.8 484 2
6/18/2019 10:25:23 PM stm32lrwan1_1 @ 868.5 Mhz 22.7 67 1011.9 484 2
6/18/2019 10:20:23 PM stm32lrwan1_1 @ 868.5 Mhz 22.7 66 1011.8 484 3
6/18/2019 10:15:23 PM stm32lrwan1_1 @ 868.3 Mhz 22.7 66 1011.8 482 2
6/18/2019 10:10:23 PM stm32lrwan1_1 @ 868.5 Mhz 22.7 66 1012 483 2
6/18/2019 10:05:23 PM stm32lrwan1_1 @ 868.3 Mhz 22.8 66 1012 482 1
6/18/2019 10:00:23 PM stm32lrwan1_1 @ 868.1 Mhz 22.8 66 1012.1 484 2
6/18/2019 9:55:23 PM stm32lrwan1_1 @ 868.1 Mhz 22.8 66 1012.1 483 2
6/18/2019 9:50:23 PM stm32lrwan1_1 @ 868.5 Mhz 22.8 66 1012.2 484 2
6/18/2019 9:45:23 PM stm32lrwan1_1 @ 868.3 Mhz 22.8 66 1012.3 483 3
6/18/2019 9:40:23 PM stm32lrwan1_1 @ 868.1 Mhz 22.8 66 1012.3 484 2
6/18/2019 9:35:23 PM stm32lrwan1_1 @ 868.1 Mhz 22.8 66 1012.2 484 2
6/18/2019 9:30:23 PM stm32lrwan1_1 @ 868.5 Mhz 22.8 66 1012.2 482 2
6/18/2019 9:25:23 PM stm32lrwan1_1 @ 868.3 Mhz 22.8 66 1012.3 483 2
6/18/2019 9:20:23 PM stm32lrwan1_1 @ 868.5 Mhz 22.8 65 1012.3 483 2
6/18/2019 9:15:23 PM stm32lrwan1_1 @ 868.5 Mhz 22.9 65 1012.4 483 2
6/18/2019 9:10:23 PM stm32lrwan1_1 @ 868.3 Mhz 22.8 65 1012.3 483 2
6/18/2019 9:05:23 PM stm32lrwan1_1 @ 868.1 Mhz 22.8 65 1012.4 483 2
6/18/2019 9:00:22 PM stm32lrwan1_1 @ 868.5 Mhz 22.8 65 1012.5 483 2
6/18/2019 8:55:22 PM stm32lrwan1_1 @ 868.1 Mhz 22.9 65 1012.5 482 2
6/18/2019 8:50:22 PM stm32lrwan1_1 @ 868.5 Mhz 22.9 65 1012.6 481 2
6/18/2019 8:45:22 PM stm32lrwan1_1 @ 868.1 Mhz 22.9 65 1012.7 483 2
6/18/2019 8:40:22 PM stm32lrwan1_1 @ 868.3 Mhz 23 65 1012.4 483 2
6/18/2019 8:35:22 PM stm32lrwan1_1 @ 868.1 Mhz 23 65 1012.5 483 3
6/18/2019 8:30:22 PM stm32lrwan1_1 @ 868.3 Mhz 23 65 1012.7 483 3
6/18/2019 8:25:22 PM stm32lrwan1_1 @ 868.1 Mhz 23 65 1012.8 481 3
6/18/2019 8:20:22 PM stm32lrwan1_1 @ 868.5 Mhz 23 65 1012.9 484 3
6/18/2019 8:15:22 PM stm32lrwan1_1 @ 868.3 Mhz 23 65 1012.9 482 4
6/18/2019 8:10:22 PM stm32lrwan1_1 @ 868.1 Mhz 23 65 1012.9 482 4
6/18/2019 8:05:22 PM stm32lrwan1_1 @ 868.1 Mhz 23 65 1012.9 483 8
6/18/2019 8:00:22 PM stm32lrwan1_1 @ 868.5 Mhz 23 65 1012.6 481 12
6/18/2019 7:55:22 PM stm32lrwan1_1 @ 868.1 Mhz 23.1 65 1012.8 481 16
6/18/2019 7:50:22 PM stm32lrwan1_1 @ 868.5 Mhz 23.1 64 1012.8 483 21
6/18/2019 7:45:22 PM stm32lrwan1_1 @ 868.5 Mhz 23.1 64 1012.9 483 26